Date_Time,Julian_Date,Latitude,Longitude,Instrument_Depth,U,V,Speed,Direction
(yyyy-mm-dd hh:mn:ss UTC),(JD),(+ deg. North),(+ deg. East),(m),(cm/s),(cm/s),(cm/s),(deg True)
1984-11-01 17:00:00 UTC,2446006.208333,29.6633,-93.4786,0079,-8.98,-0.63,9.0000,266.0000
1984-11-01 17:30:00 UTC,2446006.229167,29.6633,-93.4786,0079,-8.95,0.94,9.0000,276.0000
1984-11-01 18:00:00 UTC,2446006.250000,29.6633,-93.4786,0079,-10.00,0.17,10.0000,271.0000
1984-11-01 18:30:00 UTC,2446006.270833,29.6633,-93.4786,0079,-10.86,-1.72,11.0000,261.0000
1984-11-01 19:00:00 UTC,2446006.291667,29.6633,-93.4786,0079,-11.74,-2.49,12.0000,258.0000
1984-11-01 19:30:00 UTC,2446006.312500,29.6633,-93.4786,0079,-10.99,-0.38,11.0000,268.0000
1984-11-01 20:00:00 UTC,2446006.333333,29.6633,-93.4786,0079,-8.83,1.72,9.0000,281.0000
1984-11-01 20:30:00 UTC,2446006.354167,29.6633,-93.4786,0079,-9.70,2.42,10.0000,284.0000
1984-11-01 21:00:00 UTC,2446006.375000,29.6633,-93.4786,0079,-7.65,2.34,8.0000,287.0000
1984-11-01 21:30:00 UTC,2446006.395833,29.6633,-93.4786,0079,-6.00,0.21,6.0000,272.0000
1984-11-01 22:00:00 UTC,2446006.416667,29.6633,-93.4786,0079,-11.64,-2.90,12.0000,256.0000
1984-11-01 22:30:00 UTC,2446006.437500,29.6633,-93.4786,0079,-17.61,-3.74,18.0000,258.0000
1984-11-01 23:00:00 UTC,2446006.458333,29.6633,-93.4786,0079,-15.99,-0.56,16.0000,268.0000
1984-11-01 23:30:00 UTC,2446006.479167,29.6633,-93.4786,0079,-9.21,3.91,10.0000,293.0000
1984-11-02 00:00:00 UTC,2446006.500000,29.6633,-93.4786,0079,-5.90,6.79,9.0000,319.0000
1984-11-02 00:30:00 UTC,2446006.520833,29.6633,-93.4786,0079,-7.64,7.91,11.0000,316.0000
1984-11-02 01:00:00 UTC,2446006.541667,29.6633,-93.4786,0079,-7.50,8.04,11.0000,317.0000
1984-11-02 01:30:00 UTC,2446006.562500,29.6633,-93.4786,0079,-7.36,8.17,11.0000,318.0000
1984-11-02 02:00:00 UTC,2446006.583333,29.6633,-93.4786,0079,-6.25,6.47,9.0000,316.0000
1984-11-02 02:30:00 UTC,2446006.604167,29.6633,-93.4786,0079,-6.78,4.24,8.0000,302.0000
1984-11-02 03:00:00 UTC,2446006.625000,29.6633,-93.4786,0079,-8.77,2.02,9.0000,283.0000
1984-11-02 03:30:00 UTC,2446006.645833,29.6633,-93.4786,0079,-7.88,1.39,8.0000,280.0000
1984-11-02 04:00:00 UTC,2446006.666667,29.6633,-93.4786,0079,-6.49,2.62,7.0000,292.0000
1984-11-02 04:30:00 UTC,2446006.687500,29.6633,-93.4786,0079,-3.99,3.01,5.0000,307.0000
1984-11-02 05:00:00 UTC,2446006.708333,29.6633,-93.4786,0079,-2.93,2.73,4.0000,313.0000
1984-11-02 05:30:00 UTC,2446006.729167,29.6633,-93.4786,0079,-2.57,1.55,3.0000,301.0000
1984-11-02 06:00:00 UTC,2446006.750000,29.6633,-93.4786,0079,-1.75,3.60,4.0000,334.0000
1984-11-02 06:30:00 UTC,2446006.770833,29.6633,-93.4786,0079,-0.19,11.00,11.0000,359.0000
1984-11-02 07:00:00 UTC,2446006.791667,29.6633,-93.4786,0079,2.20,20.88,21.0000,6.0000
1984-11-02 07:30:00 UTC,2446006.812500,29.6633,-93.4786,0079,3.91,24.69,25.0000,9.0000
1984-11-02 08:00:00 UTC,2446006.833333,29.6633,-93.4786,0079,5.40,23.38,24.0000,13.0000
1984-11-02 08:30:00 UTC,2446006.854167,29.6633,-93.4786,0079,6.72,22.00,23.0000,17.0000
1984-11-02 09:00:00 UTC,2446006.875000,29.6633,-93.4786,0079,8.21,19.33,21.0000,23.0000
1984-11-02 09:30:00 UTC,2446006.895833,29.6633,-93.4786,0079,10.89,16.77,20.0000,33.0000
1984-11-02 10:00:00 UTC,2446006.916667,29.6633,-93.4786,0079,15.83,15.28,22.0000,46.0000
1984-11-02 10:30:00 UTC,2446006.937500,29.6633,-93.4786,0079,19.07,12.86,23.0000,56.0000
1984-11-02 11:00:00 UTC,2446006.958333,29.6633,-93.4786,0079,18.54,9.86,21.0000,62.0000
1984-11-02 11:30:00 UTC,2446006.979167,29.6633,-93.4786,0079,17.02,5.86,18.0000,71.0000
1984-11-02 12:00:00 UTC,2446007.000000,29.6633,-93.4786,0079,17.78,2.82,18.0000,81.0000
1984-11-02 12:30:00 UTC,2446007.020833,29.6633,-93.4786,0079,19.99,0.70,20.0000,88.0000
1984-11-02 13:00:00 UTC,2446007.041667,29.6633,-93.4786,0079,18.97,-0.99,19.0000,93.0000
1984-11-02 13:30:00 UTC,2446007.062500,29.6633,-93.4786,0079,16.87,-2.07,17.0000,97.0000
1984-11-02 14:00:00 UTC,2446007.083333,29.6633,-93.4786,0079,14.55,-3.63,15.0000,104.0000
1984-11-02 14:30:00 UTC,2446007.104167,29.6633,-93.4786,0079,13.59,-6.34,15.0000,115.0000
1984-11-02 15:00:00 UTC,2446007.125000,29.6633,-93.4786,0079,12.58,-8.17,15.0000,123.0000
1984-11-02 15:30:00 UTC,2446007.145833,29.6633,-93.4786,0079,12.29,-8.60,15.0000,125.0000
1984-11-02 16:00:00 UTC,2446007.166667,29.6633,-93.4786,0079,11.47,-8.03,14.0000,125.0000
1984-11-02 16:30:00 UTC,2446007.187500,29.6633,-93.4786,0079,10.52,-7.64,13.0000,126.0000
1984-11-02 17:00:00 UTC,2446007.208333,29.6633,-93.4786,0079,10.38,-7.82,13.0000,127.0000
1984-11-02 17:30:00 UTC,2446007.229167,29.6633,-93.4786,0079,11.18,-8.43,14.0000,127.0000
1984-11-02 18:00:00 UTC,2446007.250000,29.6633,-93.4786,0079,11.98,-9.03,15.0000,127.0000
1984-11-02 18:30:00 UTC,2446007.270833,29.6633,-93.4786,0079,7.99,-6.02,10.0000,127.0000
1984-11-02 19:00:00 UTC,2446007.291667,29.6633,-93.4786,0079,3.15,-2.46,4.0000,128.0000
1984-11-02 19:30:00 UTC,2446007.312500,29.6633,-93.4786,0079,2.23,-2.01,3.0000,132.0000
1984-11-02 20:00:00 UTC,2446007.333333,29.6633,-93.4786,0079,2.62,-3.02,4.0000,139.0000
1984-11-02 20:30:00 UTC,2446007.354167,29.6633,-93.4786,0079,1.94,-3.50,4.0000,151.0000
1984-11-02 21:00:00 UTC,2446007.375000,29.6633,-93.4786,0079,0.35,-1.97,2.0000,170.0000
1984-11-02 21:30:00 UTC,2446007.395833,29.6633,-93.4786,0079,0.31,0.95,1.0000,18.0000
1984-11-02 22:00:00 UTC,2446007.416667,29.6633,-93.4786,0079,2.46,1.72,3.0000,55.0000
1984-11-02 22:30:00 UTC,2446007.437500,29.6633,-93.4786,0079,5.64,2.05,6.0000,70.0000
1984-11-02 23:00:00 UTC,2446007.458333,29.6633,-93.4786,0079,8.34,3.37,9.0000,68.0000
1984-11-02 23:30:00 UTC,2446007.479167,29.6633,-93.4786,0079,9.62,5.33,11.0000,61.0000
1984-11-03 00:00:00 UTC,2446007.500000,29.6633,-93.4786,0079,10.78,7.27,13.0000,56.0000
1984-11-03 00:30:00 UTC,2446007.520833,29.6633,-93.4786,0079,11.33,8.23,14.0000,54.0000
1984-11-03 01:00:00 UTC,2446007.541667,29.6633,-93.4786,0079,12.14,8.82,15.0000,54.0000
1984-11-03 01:30:00 UTC,2446007.562500,29.6633,-93.4786,0079,12.14,8.82,15.0000,54.0000
1984-11-03 02:00:00 UTC,2446007.583333,29.6633,-93.4786,0079,10.38,7.82,13.0000,53.0000
1984-11-03 02:30:00 UTC,2446007.604167,29.6633,-93.4786,0079,9.58,7.22,12.0000,53.0000
1984-11-03 03:00:00 UTC,2446007.625000,29.6633,-93.4786,0079,8.09,5.88,10.0000,54.0000
1984-11-03 03:30:00 UTC,2446007.645833,29.6633,-93.4786,0079,7.63,4.77,9.0000,58.0000
1984-11-03 04:00:00 UTC,2446007.666667,29.6633,-93.4786,0079,6.93,4.00,8.0000,60.0000
1984-11-03 04:30:00 UTC,2446007.687500,29.6633,-93.4786,0079,5.94,3.71,7.0000,58.0000
1984-11-03 05:00:00 UTC,2446007.708333,29.6633,-93.4786,0079,6.06,3.50,7.0000,60.0000
1984-11-03 05:30:00 UTC,2446007.729167,29.6633,-93.4786,0079,7.52,2.74,8.0000,70.0000
1984-11-03 06:00:00 UTC,2446007.750000,29.6633,-93.4786,0079,8.93,1.10,9.0000,83.0000
1984-11-03 06:30:00 UTC,2446007.770833,29.6633,-93.4786,0079,9.93,-1.22,10.0000,97.0000
1984-11-03 07:00:00 UTC,2446007.791667,29.6633,-93.4786,0079,9.46,-3.26,10.0000,109.0000
1984-11-03 07:30:00 UTC,2446007.812500,29.6633,-93.4786,0079,8.02,-4.09,9.0000,117.0000
1984-11-03 08:00:00 UTC,2446007.833333,29.6633,-93.4786,0079,6.71,-4.36,8.0000,123.0000
1984-11-03 08:30:00 UTC,2446007.854167,29.6633,-93.4786,0079,6.71,-4.36,8.0000,123.0000
1984-11-03 09:00:00 UTC,2446007.875000,29.6633,-93.4786,0079,7.31,-3.25,8.0000,114.0000
1984-11-03 09:30:00 UTC,2446007.895833,29.6633,-93.4786,0079,8.56,-2.78,9.0000,108.0000
1984-11-03 10:00:00 UTC,2446007.916667,29.6633,-93.4786,0079,7.52,-2.74,8.0000,110.0000
1984-11-03 10:30:00 UTC,2446007.937500,29.6633,-93.4786,0079,4.53,-2.11,5.0000,115.0000
1984-11-03 11:00:00 UTC,2446007.958333,29.6633,-93.4786,0079,1.80,-0.88,2.0000,116.0000
1984-11-03 11:30:00 UTC,2446007.979167,29.6633,-93.4786,0079,1.85,-0.75,2.0000,112.0000
1984-11-03 12:00:00 UTC,2446008.000000,29.6633,-93.4786,0079,3.68,-1.56,4.0000,113.0000
1984-11-03 12:30:00 UTC,2446008.020833,29.6633,-93.4786,0079,7.36,-3.13,8.0000,113.0000
1984-11-03 13:00:00 UTC,2446008.041667,29.6633,-93.4786,0079,9.14,-4.07,10.0000,114.0000
1984-11-03 13:30:00 UTC,2446008.062500,29.6633,-93.4786,0079,8.22,-3.66,9.0000,114.0000
1984-11-03 14:00:00 UTC,2446008.083333,29.6633,-93.4786,0079,6.34,-2.96,7.0000,115.0000
1984-11-03 14:30:00 UTC,2446008.104167,29.6633,-93.4786,0079,6.24,-3.18,7.0000,117.0000
1984-11-03 15:00:00 UTC,2446008.125000,29.6633,-93.4786,0079,7.06,-3.76,8.0000,118.0000
1984-11-03 15:30:00 UTC,2446008.145833,29.6633,-93.4786,0079,8.75,-4.85,10.0000,119.0000
1984-11-03 16:00:00 UTC,2446008.166667,29.6633,-93.4786,0079,8.66,-5.00,10.0000,120.0000
1984-11-03 16:30:00 UTC,2446008.187500,29.6633,-93.4786,0079,7.71,-4.64,9.0000,121.0000
1984-11-03 17:00:00 UTC,2446008.208333,29.6633,-93.4786,0079,5.94,-3.71,7.0000,122.0000
1984-11-03 17:30:00 UTC,2446008.229167,29.6633,-93.4786,0079,4.24,-2.65,5.0000,122.0000
1984-11-03 18:00:00 UTC,2446008.250000,29.6633,-93.4786,0079,4.24,-2.65,5.0000,122.0000
1984-11-03 18:30:00 UTC,2446008.270833,29.6633,-93.4786,0079,5.87,-3.81,7.0000,123.0000
1984-11-03 19:00:00 UTC,2446008.291667,29.6633,-93.4786,0079,6.71,-4.36,8.0000,123.0000
1984-11-03 19:30:00 UTC,2446008.312500,29.6633,-93.4786,0079,5.87,-3.81,7.0000,123.0000
1984-11-03 20:00:00 UTC,2446008.333333,29.6633,-93.4786,0079,5.87,-3.81,7.0000,123.0000
1984-11-03 20:30:00 UTC,2446008.354167,29.6633,-93.4786,0079,5.03,-3.27,6.0000,123.0000
1984-11-03 21:00:00 UTC,2446008.375000,29.6633,-93.4786,0079,3.35,-2.18,4.0000,123.0000
1984-11-03 21:30:00 UTC,2446008.395833,29.6633,-93.4786,0079,2.49,-1.68,3.0000,124.0000
1984-11-03 22:00:00 UTC,2446008.416667,29.6633,-93.4786,0079,2.52,-1.63,3.0000,123.0000
1984-11-03 22:30:00 UTC,2446008.437500,29.6633,-93.4786,0079,2.52,-1.63,3.0000,123.0000
1984-11-03 23:00:00 UTC,2446008.458333,29.6633,-93.4786,0079,2.49,-1.68,3.0000,124.0000
1984-11-03 23:30:00 UTC,2446008.479167,29.6633,-93.4786,0079,3.32,-2.24,4.0000,124.0000
1984-11-04 00:00:00 UTC,2446008.500000,29.6633,-93.4786,0079,3.35,-2.18,4.0000,123.0000
1984-11-04 00:30:00 UTC,2446008.520833,29.6633,-93.4786,0079,4.19,-2.72,5.0000,123.0000
1984-11-04 01:00:00 UTC,2446008.541667,29.6633,-93.4786,0079,5.03,-3.27,6.0000,123.0000
1984-11-04 01:30:00 UTC,2446008.562500,29.6633,-93.4786,0079,6.71,-4.36,8.0000,123.0000
1984-11-04 02:00:00 UTC,2446008.583333,29.6633,-93.4786,0079,7.55,-4.90,9.0000,123.0000
1984-11-04 02:30:00 UTC,2446008.604167,29.6633,-93.4786,0079,8.39,-5.45,10.0000,123.0000
1984-11-04 03:00:00 UTC,2446008.625000,29.6633,-93.4786,0079,9.33,-5.83,11.0000,122.0000
1984-11-04 03:30:00 UTC,2446008.645833,29.6633,-93.4786,0079,9.33,-5.83,11.0000,122.0000
1984-11-04 04:00:00 UTC,2446008.666667,29.6633,-93.4786,0079,8.48,-5.30,10.0000,122.0000
1984-11-04 04:30:00 UTC,2446008.687500,29.6633,-93.4786,0079,7.71,-4.64,9.0000,121.0000
1984-11-04 05:00:00 UTC,2446008.708333,29.6633,-93.4786,0079,8.66,-5.00,10.0000,120.0000
1984-11-04 05:30:00 UTC,2446008.729167,29.6633,-93.4786,0079,9.53,-5.50,11.0000,120.0000
1984-11-04 06:00:00 UTC,2446008.750000,29.6633,-93.4786,0079,9.62,-5.33,11.0000,119.0000
1984-11-04 06:30:00 UTC,2446008.770833,29.6633,-93.4786,0079,8.75,-4.85,10.0000,119.0000
1984-11-04 07:00:00 UTC,2446008.791667,29.6633,-93.4786,0079,8.83,-4.69,10.0000,118.0000
1984-11-04 07:30:00 UTC,2446008.812500,29.6633,-93.4786,0079,8.91,-4.54,10.0000,117.0000
1984-11-04 08:00:00 UTC,2446008.833333,29.6633,-93.4786,0079,8.91,-4.54,10.0000,117.0000
1984-11-04 08:30:00 UTC,2446008.854167,29.6633,-93.4786,0079,8.91,-4.54,10.0000,117.0000
1984-11-04 09:00:00 UTC,2446008.875000,29.6633,-93.4786,0079,8.99,-4.38,10.0000,116.0000
1984-11-04 09:30:00 UTC,2446008.895833,29.6633,-93.4786,0079,9.06,-4.23,10.0000,115.0000
1984-11-04 10:00:00 UTC,2446008.916667,29.6633,-93.4786,0079,9.97,-4.65,11.0000,115.0000
1984-11-04 10:30:00 UTC,2446008.937500,29.6633,-93.4786,0079,11.88,-5.29,13.0000,114.0000
1984-11-04 11:00:00 UTC,2446008.958333,29.6633,-93.4786,0079,13.70,-6.10,15.0000,114.0000
1984-11-04 11:30:00 UTC,2446008.979167,29.6633,-93.4786,0079,13.70,-6.10,15.0000,114.0000
1984-11-04 12:00:00 UTC,2446009.000000,29.6633,-93.4786,0079,13.81,-5.86,15.0000,113.0000
1984-11-04 12:30:00 UTC,2446009.020833,29.6633,-93.4786,0079,13.81,-5.86,15.0000,113.0000
1984-11-04 13:00:00 UTC,2446009.041667,29.6633,-93.4786,0079,14.83,-5.99,16.0000,112.0000
1984-11-04 13:30:00 UTC,2446009.062500,29.6633,-93.4786,0079,15.76,-6.37,17.0000,112.0000
1984-11-04 14:00:00 UTC,2446009.083333,29.6633,-93.4786,0079,16.69,-6.74,18.0000,112.0000
1984-11-04 14:30:00 UTC,2446009.104167,29.6633,-93.4786,0079,15.76,-6.37,17.0000,112.0000
1984-11-04 15:00:00 UTC,2446009.125000,29.6633,-93.4786,0079,14.83,-5.99,16.0000,112.0000
1984-11-04 15:30:00 UTC,2446009.145833,29.6633,-93.4786,0079,14.00,-5.38,15.0000,111.0000
1984-11-04 16:00:00 UTC,2446009.166667,29.6633,-93.4786,0079,13.16,-4.79,14.0000,110.0000
1984-11-04 16:30:00 UTC,2446009.187500,29.6633,-93.4786,0079,12.22,-4.45,13.0000,110.0000
1984-11-04 17:00:00 UTC,2446009.208333,29.6633,-93.4786,0079,10.34,-3.76,11.0000,110.0000
1984-11-04 17:30:00 UTC,2446009.229167,29.6633,-93.4786,0079,9.46,-3.26,10.0000,109.0000
1984-11-04 18:00:00 UTC,2446009.250000,29.6633,-93.4786,0079,8.51,-2.93,9.0000,109.0000
1984-11-04 18:30:00 UTC,2446009.270833,29.6633,-93.4786,0079,8.56,-2.78,9.0000,108.0000
1984-11-04 19:00:00 UTC,2446009.291667,29.6633,-93.4786,0079,8.56,-2.78,9.0000,108.0000
1984-11-04 19:30:00 UTC,2446009.312500,29.6633,-93.4786,0079,6.69,-2.05,7.0000,107.0000
1984-11-04 20:00:00 UTC,2446009.333333,29.6633,-93.4786,0079,5.71,-1.85,6.0000,108.0000
1984-11-04 20:30:00 UTC,2446009.354167,29.6633,-93.4786,0079,7.61,-2.47,8.0000,108.0000
1984-11-04 21:00:00 UTC,2446009.375000,29.6633,-93.4786,0079,12.36,-4.02,13.0000,108.0000
1984-11-04 21:30:00 UTC,2446009.395833,29.6633,-93.4786,0079,15.22,-4.94,16.0000,108.0000
1984-11-04 22:00:00 UTC,2446009.416667,29.6633,-93.4786,0079,15.13,-5.21,16.0000,109.0000
1984-11-04 22:30:00 UTC,2446009.437500,29.6633,-93.4786,0079,13.16,-4.79,14.0000,110.0000
1984-11-04 23:00:00 UTC,2446009.458333,29.6633,-93.4786,0079,9.40,-3.42,10.0000,110.0000
1984-11-04 23:30:00 UTC,2446009.479167,29.6633,-93.4786,0079,4.70,-1.71,5.0000,110.0000
1984-11-05 00:00:00 UTC,2446009.500000,29.6633,-93.4786,0079,3.76,-1.37,4.0000,110.0000
1984-11-05 00:30:00 UTC,2446009.520833,29.6633,-93.4786,0079,4.70,-1.71,5.0000,110.0000
1984-11-05 01:00:00 UTC,2446009.541667,29.6633,-93.4786,0079,6.58,-2.39,7.0000,110.0000
1984-11-05 01:30:00 UTC,2446009.562500,29.6633,-93.4786,0079,7.52,-2.74,8.0000,110.0000
1984-11-05 02:00:00 UTC,2446009.583333,29.6633,-93.4786,0079,8.46,-3.08,9.0000,110.0000
1984-11-05 02:30:00 UTC,2446009.604167,29.6633,-93.4786,0079,8.46,-3.08,9.0000,110.0000
1984-11-05 03:00:00 UTC,2446009.625000,29.6633,-93.4786,0079,8.51,-2.93,9.0000,109.0000
1984-11-05 03:30:00 UTC,2446009.645833,29.6633,-93.4786,0079,9.51,-3.09,10.0000,108.0000
1984-11-05 04:00:00 UTC,2446009.666667,29.6633,-93.4786,0079,13.39,-4.09,14.0000,107.0000
1984-11-05 04:30:00 UTC,2446009.687500,29.6633,-93.4786,0079,14.42,-4.13,15.0000,106.0000
1984-11-05 05:00:00 UTC,2446009.708333,29.6633,-93.4786,0079,14.49,-3.88,15.0000,105.0000
1984-11-05 05:30:00 UTC,2446009.729167,29.6633,-93.4786,0079,14.55,-3.63,15.0000,104.0000
1984-11-05 06:00:00 UTC,2446009.750000,29.6633,-93.4786,0079,15.59,-3.60,16.0000,103.0000
1984-11-05 06:30:00 UTC,2446009.770833,29.6633,-93.4786,0079,15.65,-3.33,16.0000,102.0000
1984-11-05 07:00:00 UTC,2446009.791667,29.6633,-93.4786,0079,15.71,-3.05,16.0000,101.0000
1984-11-05 07:30:00 UTC,2446009.812500,29.6633,-93.4786,0079,14.82,-2.35,15.0000,99.0000
1984-11-05 08:00:00 UTC,2446009.833333,29.6633,-93.4786,0079,13.86,-1.95,14.0000,98.0000
1984-11-05 08:30:00 UTC,2446009.854167,29.6633,-93.4786,0079,12.93,-1.36,13.0000,96.0000
1984-11-05 09:00:00 UTC,2446009.875000,29.6633,-93.4786,0079,11.95,-1.05,12.0000,95.0000
1984-11-05 09:30:00 UTC,2446009.895833,29.6633,-93.4786,0079,11.97,-0.84,12.0000,94.0000
1984-11-05 10:00:00 UTC,2446009.916667,29.6633,-93.4786,0079,12.98,-0.68,13.0000,93.0000
1984-11-05 10:30:00 UTC,2446009.937500,29.6633,-93.4786,0079,11.99,-0.42,12.0000,92.0000
1984-11-05 11:00:00 UTC,2446009.958333,29.6633,-93.4786,0079,10.99,-0.38,11.0000,92.0000
1984-11-05 11:30:00 UTC,2446009.979167,29.6633,-93.4786,0079,10.99,-0.38,11.0000,92.0000
1984-11-05 12:00:00 UTC,2446010.000000,29.6633,-93.4786,0079,10.00,-0.17,10.0000,91.0000
1984-11-05 12:30:00 UTC,2446010.020833,29.6633,-93.4786,0079,9.00,0.00,9.0000,90.0000
1984-11-05 13:00:00 UTC,2446010.041667,29.6633,-93.4786,0079,11.00,0.19,11.0000,89.0000
1984-11-05 13:30:00 UTC,2446010.062500,29.6633,-93.4786,0079,12.00,0.21,12.0000,89.0000
1984-11-05 14:00:00 UTC,2446010.083333,29.6633,-93.4786,0079,13.00,0.23,13.0000,89.0000
1984-11-05 14:30:00 UTC,2446010.104167,29.6633,-93.4786,0079,13.00,0.23,13.0000,89.0000
1984-11-05 15:00:00 UTC,2446010.125000,29.6633,-93.4786,0079,11.99,0.42,12.0000,88.0000
1984-11-05 15:30:00 UTC,2446010.145833,29.6633,-93.4786,0079,11.98,0.63,12.0000,87.0000
1984-11-05 16:00:00 UTC,2446010.166667,29.6633,-93.4786,0079,12.98,0.68,13.0000,87.0000
1984-11-05 16:30:00 UTC,2446010.187500,29.6633,-93.4786,0079,12.97,0.91,13.0000,86.0000
1984-11-05 17:00:00 UTC,2446010.208333,29.6633,-93.4786,0079,11.97,0.84,12.0000,86.0000
1984-11-05 17:30:00 UTC,2446010.229167,29.6633,-93.4786,0079,9.96,0.87,10.0000,85.0000
1984-11-05 18:00:00 UTC,2446010.250000,29.6633,-93.4786,0079,8.97,0.78,9.0000,85.0000
1984-11-05 18:30:00 UTC,2446010.270833,29.6633,-93.4786,0079,7.97,0.70,8.0000,85.0000
1984-11-05 19:00:00 UTC,2446010.291667,29.6633,-93.4786,0079,8.95,0.94,9.0000,84.0000
1984-11-05 19:30:00 UTC,2446010.312500,29.6633,-93.4786,0079,10.94,1.15,11.0000,84.0000
1984-11-05 20:00:00 UTC,2446010.333333,29.6633,-93.4786,0079,9.95,1.05,10.0000,84.0000
1984-11-05 20:30:00 UTC,2446010.354167,29.6633,-93.4786,0079,8.95,0.94,9.0000,84.0000
1984-11-05 21:00:00 UTC,2446010.375000,29.6633,-93.4786,0079,9.95,1.05,10.0000,84.0000
1984-11-05 21:30:00 UTC,2446010.395833,29.6633,-93.4786,0079,12.93,1.36,13.0000,84.0000
1984-11-05 22:00:00 UTC,2446010.416667,29.6633,-93.4786,0079,15.91,1.67,16.0000,84.0000
1984-11-05 22:30:00 UTC,2446010.437500,29.6633,-93.4786,0079,18.90,1.99,19.0000,84.0000
1984-11-05 23:00:00 UTC,2446010.458333,29.6633,-93.4786,0079,17.90,1.88,18.0000,84.0000
1984-11-05 23:30:00 UTC,2446010.479167,29.6633,-93.4786,0079,16.91,1.78,17.0000,84.0000
1984-11-06 00:00:00 UTC,2446010.500000,29.6633,-93.4786,0079,16.91,1.78,17.0000,84.0000
1984-11-06 00:30:00 UTC,2446010.520833,29.6633,-93.4786,0079,18.90,1.99,19.0000,84.0000
1984-11-06 01:00:00 UTC,2446010.541667,29.6633,-93.4786,0079,15.91,1.67,16.0000,84.0000
1984-11-06 01:30:00 UTC,2446010.562500,29.6633,-93.4786,0079,9.95,1.05,10.0000,84.0000
1984-11-06 02:00:00 UTC,2446010.583333,29.6633,-93.4786,0079,8.93,1.10,9.0000,83.0000
1984-11-06 02:30:00 UTC,2446010.604167,29.6633,-93.4786,0079,10.92,1.34,11.0000,83.0000
1984-11-06 03:00:00 UTC,2446010.625000,29.6633,-93.4786,0079,11.88,1.67,12.0000,82.0000
1984-11-06 03:30:00 UTC,2446010.645833,29.6633,-93.4786,0079,12.87,1.81,13.0000,82.0000
1984-11-06 04:00:00 UTC,2446010.666667,29.6633,-93.4786,0079,12.87,1.81,13.0000,82.0000
1984-11-06 04:30:00 UTC,2446010.687500,29.6633,-93.4786,0079,11.85,1.88,12.0000,81.0000
1984-11-06 05:00:00 UTC,2446010.708333,29.6633,-93.4786,0079,11.85,1.88,12.0000,81.0000
1984-11-06 05:30:00 UTC,2446010.729167,29.6633,-93.4786,0079,11.85,1.88,12.0000,81.0000
1984-11-06 06:00:00 UTC,2446010.750000,29.6633,-93.4786,0079,11.85,1.88,12.0000,81.0000
1984-11-06 06:30:00 UTC,2446010.770833,29.6633,-93.4786,0079,11.85,1.88,12.0000,81.0000
1984-11-06 07:00:00 UTC,2446010.791667,29.6633,-93.4786,0079,11.85,1.88,12.0000,81.0000
1984-11-06 07:30:00 UTC,2446010.812500,29.6633,-93.4786,0079,11.85,1.88,12.0000,81.0000
1984-11-06 08:00:00 UTC,2446010.833333,29.6633,-93.4786,0079,11.85,1.88,12.0000,81.0000
1984-11-06 08:30:00 UTC,2446010.854167,29.6633,-93.4786,0079,12.80,2.26,13.0000,80.0000
1984-11-06 09:00:00 UTC,2446010.875000,29.6633,-93.4786,0079,12.80,2.26,13.0000,80.0000
1984-11-06 09:30:00 UTC,2446010.895833,29.6633,-93.4786,0079,11.78,2.29,12.0000,79.0000
1984-11-06 10:00:00 UTC,2446010.916667,29.6633,-93.4786,0079,12.76,2.48,13.0000,79.0000
1984-11-06 10:30:00 UTC,2446010.937500,29.6633,-93.4786,0079,13.74,2.67,14.0000,79.0000
1984-11-06 11:00:00 UTC,2446010.958333,29.6633,-93.4786,0079,15.71,3.05,16.0000,79.0000
1984-11-06 11:30:00 UTC,2446010.979167,29.6633,-93.4786,0079,15.71,3.05,16.0000,79.0000
1984-11-06 12:00:00 UTC,2446011.000000,29.6633,-93.4786,0079,13.74,2.67,14.0000,79.0000
1984-11-06 12:30:00 UTC,2446011.020833,29.6633,-93.4786,0079,12.76,2.48,13.0000,79.0000
1984-11-06 13:00:00 UTC,2446011.041667,29.6633,-93.4786,0079,11.78,2.29,12.0000,79.0000
1984-11-06 13:30:00 UTC,2446011.062500,29.6633,-93.4786,0079,12.76,2.48,13.0000,79.0000
1984-11-06 14:00:00 UTC,2446011.083333,29.6633,-93.4786,0079,13.74,2.67,14.0000,79.0000
1984-11-06 14:30:00 UTC,2446011.104167,29.6633,-93.4786,0079,15.71,3.05,16.0000,79.0000
1984-11-06 15:00:00 UTC,2446011.125000,29.6633,-93.4786,0079,15.71,3.05,16.0000,79.0000
1984-11-06 15:30:00 UTC,2446011.145833,29.6633,-93.4786,0079,15.71,3.05,16.0000,79.0000
1984-11-06 16:00:00 UTC,2446011.166667,29.6633,-93.4786,0079,13.74,2.67,14.0000,79.0000
1984-11-06 16:30:00 UTC,2446011.187500,29.6633,-93.4786,0079,11.74,2.49,12.0000,78.0000
1984-11-06 17:00:00 UTC,2446011.208333,29.6633,-93.4786,0079,8.80,1.87,9.0000,78.0000
1984-11-06 17:30:00 UTC,2446011.229167,29.6633,-93.4786,0079,6.85,1.46,7.0000,78.0000
1984-11-06 18:00:00 UTC,2446011.250000,29.6633,-93.4786,0079,6.85,1.46,7.0000,78.0000
1984-11-06 18:30:00 UTC,2446011.270833,29.6633,-93.4786,0079,4.89,1.04,5.0000,78.0000
1984-11-06 19:00:00 UTC,2446011.291667,29.6633,-93.4786,0079,2.94,0.57,3.0000,79.0000
1984-11-06 19:30:00 UTC,2446011.312500,29.6633,-93.4786,0079,4.91,0.95,5.0000,79.0000
1984-11-06 20:00:00 UTC,2446011.333333,29.6633,-93.4786,0079,4.91,0.95,5.0000,79.0000
1984-11-06 20:30:00 UTC,2446011.354167,29.6633,-93.4786,0079,3.93,0.76,4.0000,79.0000
1984-11-06 21:00:00 UTC,2446011.375000,29.6633,-93.4786,0079,3.91,0.83,4.0000,78.0000
1984-11-06 21:30:00 UTC,2446011.395833,29.6633,-93.4786,0079,4.89,1.04,5.0000,78.0000
1984-11-06 22:00:00 UTC,2446011.416667,29.6633,-93.4786,0079,5.87,1.25,6.0000,78.0000
1984-11-06 22:30:00 UTC,2446011.437500,29.6633,-93.4786,0079,4.76,1.55,5.0000,72.0000
1984-11-06 23:00:00 UTC,2446011.458333,29.6633,-93.4786,0079,3.99,3.01,5.0000,53.0000
1984-11-06 23:30:00 UTC,2446011.479167,29.6633,-93.4786,0079,3.53,4.85,6.0000,36.0000
1984-11-07 00:00:00 UTC,2446011.500000,29.6633,-93.4786,0079,3.71,5.94,7.0000,32.0000
1984-11-07 00:30:00 UTC,2446011.520833,29.6633,-93.4786,0079,5.59,8.29,10.0000,34.0000
1984-11-07 01:00:00 UTC,2446011.541667,29.6633,-93.4786,0079,6.71,9.95,12.0000,34.0000
1984-11-07 01:30:00 UTC,2446011.562500,29.6633,-93.4786,0079,6.31,9.01,11.0000,35.0000
1984-11-07 02:00:00 UTC,2446011.583333,29.6633,-93.4786,0079,5.16,7.37,9.0000,35.0000
1984-11-07 02:30:00 UTC,2446011.604167,29.6633,-93.4786,0079,5.16,7.37,9.0000,35.0000
1984-11-07 03:00:00 UTC,2446011.625000,29.6633,-93.4786,0079,5.29,7.28,9.0000,36.0000
1984-11-07 03:30:00 UTC,2446011.645833,29.6633,-93.4786,0079,5.14,6.13,8.0000,40.0000
1984-11-07 04:00:00 UTC,2446011.666667,29.6633,-93.4786,0079,5.12,4.77,7.0000,47.0000
1984-11-07 04:30:00 UTC,2446011.687500,29.6633,-93.4786,0079,4.79,3.61,6.0000,53.0000
1984-11-07 05:00:00 UTC,2446011.708333,29.6633,-93.4786,0079,4.37,2.42,5.0000,61.0000
1984-11-07 05:30:00 UTC,2446011.729167,29.6633,-93.4786,0079,4.73,1.63,5.0000,71.0000
1984-11-07 06:00:00 UTC,2446011.750000,29.6633,-93.4786,0079,5.91,1.04,6.0000,80.0000
1984-11-07 06:30:00 UTC,2446011.770833,29.6633,-93.4786,0079,6.00,0.00,6.0000,90.0000
1984-11-07 07:00:00 UTC,2446011.791667,29.6633,-93.4786,0079,7.96,-0.84,8.0000,96.0000
1984-11-07 07:30:00 UTC,2446011.812500,29.6633,-93.4786,0079,9.82,-1.91,10.0000,101.0000